User: anonymous   Login
Location: Bois de la Silve
(44.4667°N, 6.7833°E)
Time: 19:42:19
(UTC+00:00)
Language:

Okean 1-7 - Orbit

View from above orbital plane
View from above orbital plane
View from above satellite
View from above satellite

Ground track
Ground track

The orbit data is extracted from the following two-line orbital elements,

1 23317U 94066A   20263.55409407 +.00000136 +00000-0 +12118-4 0  9995
2 23317 082.5350 078.5354 0021261 074.1705 286.1854 14.87799046402925
Epoch (UTC): 19 September 2020 13:17:53
Eccentricity: 0.0021261
inclination: 82.5350°
perigee height: 590 km
apogee height: 619 km
right ascension of ascending node: 78.5354°
argument of perigee: 74.1705°
revolutions per day: 14.87799046
mean anomaly at epoch: 286.1854°
orbit number at epoch: 40292

The dashed part of the orbit path shows where the satellite is in the earth's shadow,  

DLR